Weather in Lavrentyevka

Russia / Orenburg Oblast     52°25′01″N   51°40′17″E
temp.,
°C
wind,
m/s
gust,
m/s
humid.,
%
clouds,
%
prec.,
mm/h
press.,
hPa
HPBL,
m
27 february, sat
sat2723:00−12sse91494100 0.1 1014486
02:00−11sse101894100 2.2 1007476
05:00−8s91695100 6.9 1003503
08:00−6s5995100 1.3 1001245
11:000sw4810099 1.4 1000369
14:00+1wsw59100100 0.1 1000455
17:000wsw5999100 0.2 1000476
20:000wsw5898100 0.3 999440
28 february, sun
sun2823:000wsw4898100 1.0 999376
02:00−1sw4798100 0.6 998368
05:00−2wnw3698100 1.6 999209
08:00−10nw7129394 0.3 1000294
11:00−12nw7119392 0.4 1002340
14:00−12nw71193100 0.1 1005398
17:00−12nw61091100 0.1 1008492
20:00−14nw4109499 0.1 1010280
1 march, mon
mon123:00−15wnw499597 0.1 1013253
02:00−15nw489595 0.1 1014243
05:00−16nw489597 0.2 1016213
08:00−17nw489595 0.1 1017240
11:00−17nw579593 0.2 1019234
14:00−17nw479362 0.0 1021267
17:00−16nw479472 0.0 1022296
20:00−20nw349974 0.0 102335
2 march, tue
tue223:00−21wnw239843 0.0 102420
02:00−22w22990 0.0 102320
05:00−22wsw33992 0.0 102223
08:00−20ssw4710050 0.0 1019107
11:00−16ssw6119574 0.0 1017279
14:00−12ssw81395100 0.1 1014362
17:00−9ssw81493100 0.4 1010594
20:00−5ssw71494100 0.6 1007669
3 march, wed
wed323:00−4ssw71395100 1.3 1004587
02:00−3sw61195100 0.5 1002391
05:00−3w4996100 1.1 1001283
08:00−6w489687 0.1 1001203
11:00−6w599591 0.1 1002283
14:00−3w6109493 0.1 1003599
17:00−3nw7119497 0.9 1003905
20:00−4nw61393100 0.5 1004696